User: anonymous   Login
Location: Unspecified
(0.0000°N, 0.0000°E)
Time: 12:33:02
(UTC+00:00)
Language:

XW-2A - Orbit

View from above orbital plane
View from above orbital plane
View from above satellite
View from above satellite

Ground track
Ground track

The orbit data is extracted from the following two-line orbital elements,

1 40903U 15049E   18170.12552048  .00001583  00000-0  41018-4 0  9994
2 40903  97.3838 205.0001 0014957  30.0611 330.1491 15.40514751154106
Epoch (UTC): 19 June 2018 03:00:44
Eccentricity: 0.0014957
inclination: 97.3838°
perigee height: 434 km
apogee height: 455 km
right ascension of ascending node: 205.0001°
argument of perigee: 30.0611°
revolutions per day: 15.40514751
mean anomaly at epoch: 330.1491°
orbit number at epoch: 15410

The dashed part of the orbit path shows where the satellite is in the earth's shadow,  

DLR